Time,TemperatureF,DewpointF,PressureIn,WindDirection,WindDirectionDegrees,WindSpeedMPH,WindSpeedGustMPH,Humidity,HourlyPrecipIn,Conditions,Clouds,dailyrainin,SoftwareType,DateUTC
2013-06-16 00:01:00,72.0,68.0,29.97,WNW,298,3.0,9.0,87,77.50,,,-99.99,,2013-06-16 05:01:00,
2013-06-16 00:11:00,71.0,67.0,29.98,WSW,246,6.0,17.0,86,77.52,,,-99.99,,2013-06-16 05:11:00,
2013-06-16 00:22:00,69.0,66.0,29.98,West,274,5.0,17.0,90,77.54,,,-99.99,,2013-06-16 05:22:00,
2013-06-16 00:34:00,68.0,66.0,29.97,West,280,4.0,15.0,94,77.56,,,-99.99,,2013-06-16 05:34:00,
2013-06-16 00:43:00,68.0,66.0,29.97,West,280,3.0,10.0,94,77.58,,,-99.99,,2013-06-16 05:43:00,
2013-06-16 00:52:00,68.0,66.0,29.96,WSW,256,4.0,9.0,92,77.59,,,-99.99,,2013-06-16 05:52:00,
2013-06-16 01:01:00,68.0,66.0,29.96,WSW,256,4.0,9.0,92,77.59,,,-99.99,,2013-06-16 06:01:00,
2013-06-16 01:11:00,68.0,65.0,29.97,NNE,18,1.0,5.0,90,77.62,,,-99.99,,2013-06-16 06:11:00,
2013-06-16 01:22:00,68.0,66.0,29.97,West,267,2.0,7.0,92,77.62,,,-99.99,,2013-06-16 06:22:00,
2013-06-16 01:33:00,68.0,66.0,29.96,NNW,333,2.0,10.0,92,77.63,,,-99.99,,2013-06-16 06:33:00,
2013-06-16 01:43:00,68.0,66.0,29.95,SW,228,0.0,3.0,93,77.63,,,-99.99,,2013-06-16 06:43:00,
2013-06-16 01:52:00,68.0,66.0,29.95,North,0,0.0,0.0,94,77.63,,,-99.99,,2013-06-16 06:52:00,
2013-06-16 02:01:00,68.0,67.0,29.94,WNW,298,1.0,3.0,95,77.63,,,-99.99,,2013-06-16 07:01:00,
2013-06-16 02:11:00,68.0,67.0,29.93,West,267,1.0,3.0,95,77.63,,,-99.99,,2013-06-16 07:11:00,
2013-06-16 02:22:00,68.0,67.0,29.92,WSW,245,0.0,3.0,96,77.63,,,-99.99,,2013-06-16 07:22:00,
2013-06-16 02:33:00,68.0,67.0,29.92,North,0,0.0,0.0,96,77.63,,,-99.99,,2013-06-16 07:33:00,
2013-06-16 02:43:00,68.0,67.0,29.91,WSW,250,0.0,1.0,96,77.63,,,-99.99,,2013-06-16 07:43:00,
2013-06-16 02:53:00,67.0,66.0,29.92,SW,224,1.0,4.0,97,77.63,,,-99.99,,2013-06-16 07:53:00,
2013-06-16 03:02:00,67.0,66.0,29.93,WSW,248,2.0,6.0,97,77.63,,,-99.99,,2013-06-16 08:02:00,
2013-06-16 03:12:00,68.0,67.0,29.91,West,269,1.0,3.0,96,77.63,,,-99.99,,2013-06-16 08:12:00,
2013-06-16 03:22:00,68.0,67.0,29.91,SW,231,0.0,5.0,96,77.63,,,-99.99,,2013-06-16 08:22:00,
2013-06-16 03:33:00,68.0,67.0,29.90,North,0,0.0,0.0,96,77.63,,,-99.99,,2013-06-16 08:33:00,
2013-06-16 03:43:00,68.0,67.0,29.91,SW,229,0.0,2.0,95,77.63,,,-99.99,,2013-06-16 08:43:00,
2013-06-16 03:54:00,68.0,67.0,29.91,WSW,252,0.0,1.0,96,77.65,,,-99.99,,2013-06-16 08:54:00,
2013-06-16 04:02:00,67.0,66.0,29.91,WSW,246,1.0,5.0,96,77.65,,,-99.99,,2013-06-16 09:02:00,
2013-06-16 04:11:00,67.0,66.0,29.92,North,0,0.0,0.0,96,77.65,,,-99.99,,2013-06-16 09:11:00,
2013-06-16 04:22:00,67.0,66.0,29.92,North,0,0.0,0.0,96,77.65,,,-99.99,,2013-06-16 09:22:00,
2013-06-16 04:33:00,67.0,66.0,29.91,North,0,0.0,0.0,97,77.65,,,-99.99,,2013-06-16 09:33:00,
2013-06-16 04:43:00,67.0,66.0,29.91,North,0,0.0,0.0,97,77.65,,,-99.99,,2013-06-16 09:43:00,
2013-06-16 04:52:00,67.0,66.0,29.91,North,0,0.0,0.0,97,77.65,,,-99.99,,2013-06-16 09:52:00,
2013-06-16 05:01:00,67.0,66.0,29.92,North,0,0.0,0.0,97,77.65,,,-99.99,,2013-06-16 10:01:00,
2013-06-16 05:12:00,67.0,66.0,29.92,NW,318,1.0,5.0,97,77.65,,,-99.99,,2013-06-16 10:12:00,
2013-06-16 05:22:00,67.0,66.0,29.92,NW,318,1.0,5.0,97,77.65,,,-99.99,,2013-06-16 10:22:00,
2013-06-16 05:33:00,67.0,66.0,29.93,NW,307,1.0,6.0,97,77.65,,,-99.99,,2013-06-16 10:33:00,
2013-06-16 05:43:00,67.0,66.0,29.95,West,264,1.0,5.0,96,77.65,,,-99.99,,2013-06-16 10:43:00,
2013-06-16 05:53:00,67.0,66.0,29.95,WNW,283,3.0,7.0,96,77.65,,,-99.99,,2013-06-16 10:53:00,
2013-06-16 06:02:00,67.0,66.0,29.94,West,278,1.0,4.0,95,77.65,,,-99.99,,2013-06-16 11:02:00,
2013-06-16 06:11:00,68.0,67.0,29.94,West,280,0.0,2.0,95,77.65,,,-99.99,,2013-06-16 11:11:00,
2013-06-16 06:22:00,68.0,67.0,29.94,NW,326,0.0,0.0,95,77.65,,,-99.99,,2013-06-16 11:22:00,
2013-06-16 06:34:00,68.0,67.0,29.94,NW,309,0.0,2.0,96,77.67,,,-99.99,,2013-06-16 11:34:00,
2013-06-16 06:43:00,67.0,66.0,29.95,WSW,248,1.0,4.0,96,77.68,,,-99.99,,2013-06-16 11:43:00,
2013-06-16 06:52:00,67.0,66.0,29.95,WNW,290,2.0,5.0,96,77.68,,,-99.99,,2013-06-16 11:52:00,
2013-06-16 07:02:00,67.0,66.0,29.96,WNW,293,1.0,5.0,96,77.68,,,-99.99,,2013-06-16 12:02:00,
2013-06-16 07:12:00,67.0,66.0,29.96,WNW,302,1.0,4.0,96,77.68,,,-99.99,,2013-06-16 12:12:00,
2013-06-16 07:22:00,68.0,67.0,29.96,West,278,3.0,7.0,96,77.68,,,-99.99,,2013-06-16 12:22:00,
2013-06-16 07:32:00,68.0,67.0,29.96,WNW,285,3.0,7.0,95,77.68,,,-99.99,,2013-06-16 12:32:00,
2013-06-16 07:42:00,68.0,66.0,29.96,WNW,283,3.0,8.0,93,77.68,,,-99.99,,2013-06-16 12:42:00,
2013-06-16 07:53:00,68.0,66.0,29.96,WNW,283,3.0,8.0,93,77.68,,,-99.99,,2013-06-16 12:53:00,
2013-06-16 08:01:00,68.0,66.0,29.97,North,352,1.0,4.0,94,77.68,,,-99.99,,2013-06-16 13:01:00,
2013-06-16 08:11:00,68.0,66.0,29.97,West,271,1.0,5.0,94,77.68,,,-99.99,,2013-06-16 13:11:00,
2013-06-16 08:22:00,68.0,66.0,29.97,West,277,2.0,3.0,94,77.68,,,-99.99,,2013-06-16 13:22:00,
2013-06-16 08:34:00,68.0,67.0,29.97,West,260,2.0,5.0,95,77.68,,,-99.99,,2013-06-16 13:34:00,
2013-06-16 08:42:00,68.0,67.0,29.98,NW,314,2.0,5.0,95,77.68,,,-99.99,,2013-06-16 13:42:00,
2013-06-16 08:53:00,68.0,67.0,29.98,West,281,2.0,5.0,95,77.68,,,-99.99,,2013-06-16 13:53:00,
2013-06-16 09:02:00,68.0,67.0,29.98,WSW,248,1.0,6.0,95,77.68,,,-99.99,,2013-06-16 14:02:00,
2013-06-16 09:12:00,69.0,68.0,29.97,WNW,287,1.0,4.0,95,77.68,,,-99.99,,2013-06-16 14:12:00,
2013-06-16 09:22:00,69.0,68.0,29.97,WNW,301,2.0,5.0,95,77.68,,,-99.99,,2013-06-16 14:22:00,
2013-06-16 09:34:00,69.0,68.0,29.97,NW,311,2.0,8.0,95,77.68,,,-99.99,,2013-06-16 14:34:00,
2013-06-16 09:43:00,70.0,68.0,29.97,WSW,243,3.0,8.0,94,77.68,,,-99.99,,2013-06-16 14:43:00,
2013-06-16 09:52:00,70.0,68.0,29.97,WNW,293,4.0,8.0,93,77.68,,,-99.99,,2013-06-16 14:52:00,
2013-06-16 10:02:00,72.0,68.0,29.97,WNW,284,4.0,10.0,86,77.68,,,-99.99,,2013-06-16 15:02:00,
2013-06-16 10:12:00,73.0,68.0,29.97,West,280,4.0,9.0,84,77.68,,,-99.99,,2013-06-16 15:12:00,
2013-06-16 10:23:00,74.0,68.0,29.96,West,278,3.0,6.0,81,77.68,,,-99.99,,2013-06-16 15:23:00,
2013-06-16 10:33:00,74.0,67.0,29.96,West,280,5.0,10.0,78,77.68,,,-99.99,,2013-06-16 15:33:00,
2013-06-16 10:43:00,75.0,68.0,29.96,NW,307,4.0,9.0,80,77.68,,,-99.99,,2013-06-16 15:43:00,
2013-06-16 10:52:00,75.0,67.0,29.96,West,266,3.0,7.0,76,77.68,,,-99.99,,2013-06-16 15:52:00,
2013-06-16 11:02:00,75.0,68.0,29.96,West,266,4.0,8.0,78,77.68,,,-99.99,,2013-06-16 16:02:00,
2013-06-16 11:12:00,76.0,68.0,29.96,West,267,5.0,12.0,76,77.68,,,-99.99,,2013-06-16 16:12:00,
2013-06-16 11:22:00,76.0,67.0,29.96,WNW,290,3.0,8.0,74,77.68,,,-99.99,,2013-06-16 16:22:00,
2013-06-16 11:33:00,77.0,68.0,29.96,West,273,3.0,8.0,73,77.68,,,-99.99,,2013-06-16 16:33:00,
2013-06-16 11:43:00,78.0,66.0,29.96,WNW,288,4.0,11.0,67,77.68,,,-99.99,,2013-06-16 16:43:00,
2013-06-16 11:53:00,78.0,67.0,29.96,West,267,5.0,10.0,69,77.68,,,-99.99,,2013-06-16 16:53:00,
2013-06-16 12:02:00,77.0,67.0,29.96,WNW,290,3.0,10.0,71,77.68,,,-99.99,,2013-06-16 17:02:00,
2013-06-16 12:12:00,77.0,67.0,29.96,WNW,293,5.0,11.0,71,77.68,,,-99.99,,2013-06-16 17:12:00,
2013-06-16 12:22:00,76.0,67.0,29.96,NW,307,3.0,8.0,74,77.68,,,-99.99,,2013-06-16 17:22:00,
2013-06-16 12:34:00,76.0,67.0,29.96,NW,322,4.0,10.0,73,77.68,,,-99.99,,2013-06-16 17:34:00,
2013-06-16 12:43:00,76.0,67.0,29.96,WNW,283,4.0,11.0,75,77.68,,,-99.99,,2013-06-16 17:43:00,
2013-06-16 12:53:00,76.0,68.0,29.97,WNW,288,3.0,9.0,76,77.68,,,-99.99,,2013-06-16 17:53:00,
2013-06-16 13:02:00,74.0,68.0,29.97,West,271,4.0,10.0,83,77.68,,,-99.99,,2013-06-16 18:02:00,
2013-06-16 13:12:00,74.0,68.0,29.96,WNW,284,4.0,8.0,83,77.68,,,-99.99,,2013-06-16 18:12:00,
2013-06-16 13:22:00,76.0,69.0,29.96,West,267,5.0,11.0,78,77.68,,,-99.99,,2013-06-16 18:22:00,
2013-06-16 13:33:00,77.0,68.0,29.95,WNW,293,5.0,12.0,75,77.68,,,-99.99,,2013-06-16 18:33:00,
2013-06-16 13:43:00,77.0,68.0,29.95,WNW,298,5.0,11.0,73,77.68,,,-99.99,,2013-06-16 18:43:00,
2013-06-16 13:52:00,77.0,68.0,29.95,WNW,288,6.0,13.0,73,77.68,,,-99.99,,2013-06-16 18:52:00,
2013-06-16 14:01:00,76.0,67.0,29.95,West,276,5.0,10.0,74,77.68,,,-99.99,,2013-06-16 19:01:00,
2013-06-16 14:11:00,77.0,68.0,29.96,WNW,287,5.0,14.0,74,77.68,,,-99.99,,2013-06-16 19:11:00,
2013-06-16 14:22:00,77.0,67.0,29.95,WNW,295,6.0,14.0,72,77.68,,,-99.99,,2013-06-16 19:22:00,
2013-06-16 14:34:00,77.0,67.0,29.95,WNW,290,5.0,13.0,72,77.68,,,-99.99,,2013-06-16 19:34:00,
2013-06-16 14:43:00,77.0,67.0,29.95,WNW,300,6.0,10.0,72,77.68,,,-99.99,,2013-06-16 19:43:00,
2013-06-16 14:53:00,78.0,68.0,29.95,NW,304,5.0,16.0,71,77.68,,,-99.99,,2013-06-16 19:53:00,
2013-06-16 15:02:00,78.0,68.0,29.95,WNW,302,4.0,8.0,71,77.68,,,-99.99,,2013-06-16 20:02:00,
2013-06-16 15:11:00,78.0,67.0,29.95,WNW,293,4.0,9.0,70,77.68,,,-99.99,,2013-06-16 20:11:00,
2013-06-16 15:22:00,79.0,67.0,29.94,WNW,284,5.0,11.0,67,77.68,,,-99.99,,2013-06-16 20:22:00,
2013-06-16 15:33:00,80.0,68.0,29.94,WNW,302,3.0,9.0,66,77.68,,,-99.99,,2013-06-16 20:33:00,
2013-06-16 15:42:00,80.0,67.0,29.93,WNW,293,4.0,10.0,65,77.68,,,-99.99,,2013-06-16 20:42:00,
2013-06-16 15:53:00,80.0,67.0,29.93,WNW,291,5.0,10.0,64,77.68,,,-99.99,,2013-06-16 20:53:00,
2013-06-16 16:01:00,80.0,67.0,29.93,West,273,4.0,8.0,65,77.68,,,-99.99,,2013-06-16 21:01:00,
2013-06-16 16:11:00,80.0,68.0,29.93,WNW,290,5.0,9.0,66,77.68,,,-99.99,,2013-06-16 21:11:00,
2013-06-16 16:22:00,80.0,67.0,29.92,West,262,3.0,8.0,65,77.68,,,-99.99,,2013-06-16 21:22:00,
2013-06-16 16:32:00,80.0,68.0,29.92,NW,305,4.0,10.0,66,77.68,,,-99.99,,2013-06-16 21:32:00,
2013-06-16 16:42:00,80.0,66.0,29.92,West,281,3.0,8.0,63,77.68,,,-99.99,,2013-06-16 21:42:00,
2013-06-16 16:53:00,80.0,67.0,29.92,WSW,248,2.0,9.0,65,77.68,,,-99.99,,2013-06-16 21:53:00,
2013-06-16 17:01:00,80.0,67.0,29.92,WNW,283,3.0,6.0,65,77.68,,,-99.99,,2013-06-16 22:01:00,
2013-06-16 17:12:00,81.0,68.0,29.91,NW,308,3.0,8.0,64,77.68,,,-99.99,,2013-06-16 22:12:00,
2013-06-16 17:22:00,81.0,68.0,29.92,WSW,255,2.0,5.0,65,77.68,,,-99.99,,2013-06-16 22:22:00,
2013-06-16 17:32:00,80.0,68.0,29.91,West,278,2.0,8.0,66,77.68,,,-99.99,,2013-06-16 22:32:00,
2013-06-16 17:42:00,80.0,67.0,29.91,West,267,4.0,9.0,65,77.68,,,-99.99,,2013-06-16 22:42:00,
2013-06-16 17:52:00,80.0,68.0,29.91,WSW,246,2.0,7.0,66,77.68,,,-99.99,,2013-06-16 22:52:00,
2013-06-16 18:01:00,81.0,68.0,29.91,West,269,2.0,6.0,65,77.68,,,-99.99,,2013-06-16 23:01:00,
2013-06-16 18:11:00,81.0,68.0,29.91,WNW,284,2.0,5.0,64,77.68,,,-99.99,,2013-06-16 23:11:00,
2013-06-16 18:22:00,81.0,67.0,29.91,WNW,294,3.0,7.0,63,77.68,,,-99.99,,2013-06-16 23:22:00,
2013-06-16 18:32:00,81.0,67.0,29.91,WNW,285,2.0,8.0,63,77.68,,,-99.99,,2013-06-16 23:32:00,
2013-06-16 18:42:00,81.0,67.0,29.91,WNW,288,3.0,8.0,63,77.68,,,-99.99,,2013-06-16 23:42:00,
2013-06-16 18:52:00,81.0,68.0,29.91,NW,307,2.0,8.0,65,77.68,,,-99.99,,2013-06-16 23:52:00,
2013-06-16 19:02:00,81.0,68.0,29.91,WNW,285,3.0,8.0,65,77.68,,,-99.99,,2013-06-17 00:02:00,
2013-06-16 19:11:00,80.0,68.0,29.91,West,281,2.0,6.0,67,77.68,,,-99.99,,2013-06-17 00:11:00,
2013-06-16 19:22:00,80.0,68.0,29.91,WNW,283,3.0,7.0,68,77.68,,,-99.99,,2013-06-17 00:22:00,
2013-06-16 19:32:00,79.0,68.0,29.91,NW,309,2.0,5.0,69,77.68,,,-99.99,,2013-06-17 00:32:00,
2013-06-16 19:43:00,79.0,68.0,29.91,WNW,284,3.0,7.0,70,77.68,,,-99.99,,2013-06-17 00:43:00,
2013-06-16 19:52:00,79.0,68.0,29.91,WNW,301,2.0,5.0,70,77.68,,,-99.99,,2013-06-17 00:52:00,
2013-06-16 20:02:00,79.0,69.0,29.91,NW,308,2.0,4.0,71,77.68,,,-99.99,,2013-06-17 01:02:00,
2013-06-16 20:12:00,79.0,69.0,29.91,WSW,249,1.0,4.0,72,77.68,,,-99.99,,2013-06-17 01:12:00,
2013-06-16 20:22:00,79.0,69.0,29.91,WSW,249,1.0,4.0,72,77.68,,,-99.99,,2013-06-17 01:22:00,
2013-06-16 20:32:00,78.0,69.0,29.90,West,270,0.0,4.0,74,77.68,,,-99.99,,2013-06-17 01:32:00,
2013-06-16 20:43:00,78.0,70.0,29.91,West,277,2.0,4.0,76,77.68,,,-99.99,,2013-06-17 01:43:00,
2013-06-16 20:53:00,77.0,70.0,29.91,WSW,248,1.0,5.0,78,77.68,,,-99.99,,2013-06-17 01:53:00,
2013-06-16 21:02:00,77.0,70.0,29.91,WNW,298,0.0,3.0,80,77.68,,,-99.99,,2013-06-17 02:02:00,
2013-06-16 21:12:00,76.0,70.0,29.91,West,278,1.0,4.0,81,77.68,,,-99.99,,2013-06-17 02:12:00,
2013-06-16 21:22:00,76.0,70.0,29.91,WNW,285,1.0,4.0,82,77.68,,,-99.99,,2013-06-17 02:22:00,
2013-06-16 21:34:00,76.0,70.0,29.92,SW,235,1.0,4.0,83,77.68,,,-99.99,,2013-06-17 02:34:00,
2013-06-16 21:43:00,75.0,70.0,29.92,WSW,255,1.0,3.0,85,77.68,,,-99.99,,2013-06-17 02:43:00,
2013-06-16 21:53:00,75.0,70.0,29.92,WSW,245,0.0,3.0,85,77.68,,,-99.99,,2013-06-17 02:53:00,
2013-06-16 22:02:00,75.0,70.0,29.92,WSW,245,0.0,3.0,85,77.68,,,-99.99,,2013-06-17 03:02:00,
2013-06-16 22:12:00,74.0,70.0,29.92,West,263,0.0,2.0,88,77.68,,,-99.99,,2013-06-17 03:12:00,
2013-06-16 22:22:00,74.0,71.0,29.93,WSW,252,0.0,2.0,89,77.68,,,-99.99,,2013-06-17 03:22:00,
2013-06-16 22:33:00,74.0,71.0,29.93,West,270,0.0,2.0,89,77.68,,,-99.99,,2013-06-17 03:33:00,
2013-06-16 22:44:00,73.0,70.0,29.93,WSW,248,0.0,4.0,90,77.68,,,-99.99,,2013-06-17 03:44:00,
2013-06-16 22:53:00,73.0,70.0,29.93,SW,225,0.0,3.0,91,77.68,,,-99.99,,2013-06-17 03:53:00,
2013-06-16 23:02:00,73.0,71.0,29.93,WSW,246,1.0,4.0,92,77.68,,,-99.99,,2013-06-17 04:02:00,
2013-06-16 23:12:00,73.0,71.0,29.93,West,281,0.0,2.0,92,77.68,,,-99.99,,2013-06-17 04:12:00,
2013-06-16 23:22:00,73.0,71.0,29.93,WSW,240,0.0,4.0,93,77.68,,,-99.99,,2013-06-17 04:22:00,
2013-06-16 23:34:00,73.0,71.0,29.93,WSW,240,0.0,4.0,93,77.68,,,-99.99,,2013-06-17 04:34:00,
2013-06-16 23:43:00,73.0,71.0,29.93,WNW,293,1.0,3.0,94,77.68,,,-99.99,,2013-06-17 04:43:00,
2013-06-16 23:53:00,72.0,70.0,29.93,West,260,1.0,4.0,95,77.68,,,-99.99,,2013-06-17 04:53:00,